OBJECT A, 61238

Orbit data source: Space-Track

You're viewing an Uncataloged Satellite

Recently launched and/or uncataloged satellites may have evolving metadata. Metadata may include but not limited to: Owner, Maufacturer, Bus, Motor, and Mission.

OBJECT A, 61238 is a Chinese satellite in SSO that was launched on Tue, 24 Sep 2024 UTC via a LIJIAN-1 launch vehicle from the Jiuquan Satellite Launch Center, China (JSC). Unknown objects in Earth's orbit typically refer to objects detected orbiting the Earth but have not yet been identified or cataloged. These objects could be anything from previously untracked satellites, spent rocket stages, debris from satellite collisions, or even natural meteoroids temporarily captured by Earth's gravity.

Loading next visibility...
Identifier
61238, 2024-174A
Orbit
SSO
Country
Flag of CNCN / PRC
Related business
None
Manufacturer
ZHWK/HITSAT
Mission
Operational Commercial Radar Imaging
Bus & Motor
ZK1, Unknown motor
Mass
~250 kg wet, ~250 kg dry
Launch date (UTC)
2024-09-24 (1 year ago)
Launch vehicle
LIJIAN-1
Launch site
Jiuquan Satellite Launch Center, China (JSC)
Object type
Unknown
Shape & HBR
Box + 3 Pan, 3.0 m
Radar Cross Section
3.533 m², Large (>1 m²)

Expand to show TLE details & history
Last TLE update: 8 hours ago

TLE from 8 hours ago
0 OBJECT A
1 61238U 24174A   25260.31552105  .00003133  00000-0  15235-3 0  9994
2 61238  97.4531 266.8126 0001660  90.1936 269.9489 15.19148559 54254
Epoch: 2025-09-17T07:34Z
TLE epoch observation values (Epoch: 2025-09-17T07:34:21.018Z)
Latitude
-0.00001°
Longitude
156.7318°
Altitude
511.502 km
Speed
7.608 km/s
True Right ascension
17h 47m 15s
True Declination
0° 00' 00"
Sunlit
Object was in daylight at epoch
Visualization orbit readout
Latitude
Unknown
Longitude
Unknown
Altitude
Unknown
Speed
Unknown
Apparent Right ascension
Unknown
Apparent Declination
Unknown
Sunlit
N/A
Visualization observer readout
Local Sidereal Time
08:32:56
Azimuth
Unknown
Elevation
Unknown
Doppler factor
Unknown
Orbital elements
Apogee altitude
506.524 km
Perigee altitude
504.239 km
Semi-major axis
6,883.519 km
Eccentricity
0.00017
Inclination
97.4531°
RAAN
266.8126°
Arg. of periapsis
90.1936°
True anomaly
269.92988°
Mean anomaly
269.9489°
Eccentric anomaly
269.93939°
Mean motion
3.80038 °/min
Orbital period
94.73 mins
BSTAR
0.00015235
Loading maneuver chart data...
Computing Atmospheric mass density...
Loading historical data...
Loading historical data...
Loading historical data...
Loading historical data...
Loading historical data...
Loading historical data...
Loading historical data...

Documentation

Showing up to 5 results
|